Location: Arcusa
(42.3167°N, 0.0833°W)
Time: 17:47:09
(UTC+00:00)

Cosmos 1452 Rocket - Pass Details

Date: 25 January 2020
Orbit: 768 x 774 km, 74.1° (Epoch: 27 February)

Event Time Altitude Azimuth Distance (km) Brightness Sun altitude
Rises 06:11:29 0° 344° (NNW) 3,251 6.5 -12.9°
Reaches altitude 10° 06:13:57 10° 349° (N) 2,320 5.7 -12.5°
Maximum altitude 06:19:05 52° 66° (ENE) 957 4.4 -11.5°
Drops below altitude 10° 06:24:10 10° 143° (SE) 2,303 6.8 -10.6°
Sets 06:26:36 0° 148° (SSE) 3,225 7.6 -10.2°
